This is the latest recevied weather packets stored in our database for station/object DM4XI-13. If no packets are shown the sender has not sent any weather packets the latest 10 day(s).
| Time | Temp. | Humidity | Pressure | Rain* | Wind** | Luminosity | Snow |
|---|---|---|---|---|---|---|---|
| 1778162545 | 13.89° C | 69% | 1012 hPa | 0 mm | 1.79 m/s, 203° | 331 W/m² | - |
| 1778162484 | 13.89° C | 70% | 1011.9 hPa | 0 mm | 0.45 m/s, 180° | 357 W/m² | - |
| 1778162423 | 13.89° C | 69% | 1011.8 hPa | 0 mm | 0.45 m/s, 237° | 239 W/m² | - |
| 1778162363 | 13.89° C | 69% | 1011.8 hPa | 0 mm | 0.89 m/s, 249° | 228 W/m² | - |
| 1778162301 | 13.89° C | 69% | 1011.7 hPa | 0 mm | 1.34 m/s, 248° | 262 W/m² | - |
| 1778162240 | 13.89° C | 70% | 1011.9 hPa | 0 mm | 0.89 m/s, 173° | 280 W/m² | - |
| 1778162180 | 13.89° C | 70% | 1011.8 hPa | 0 mm | 1.34 m/s, 276° | 379 W/m² | - |
| 1778162119 | 13.33° C | 71% | 1011.9 hPa | 0 mm | 1.34 m/s, 276° | 436 W/m² | - |
| 1778162057 | 12.78° C | 72% | 1011.8 hPa | 0 mm | 2.68 m/s, 278° | 436 W/m² | - |
| 1778161996 | 12.78° C | 72% | 1011.8 hPa | 0 mm | 0.45 m/s, 239° | 463 W/m² | - |
| 1778161935 | 12.78° C | 73% | 1011.8 hPa | 0 mm | 0.45 m/s, 260° | 528 W/m² | - |
| 1778161875 | 12.78° C | 73% | 1011.7 hPa | 0 mm | 1.79 m/s, 347° | 491 W/m² | - |
| 1778161814 | 12.22° C | 74% | 1011.7 hPa | 0 mm | 1.79 m/s, 346° | 357 W/m² | - |
| 1778161752 | 12.22° C | 74% | 1011.8 hPa | 0 mm | 0.89 m/s, 257° | 355 W/m² | - |
| 1778161692 | 12.22° C | 76% | 1011.7 hPa | 0 mm | 0 m/s | 244 W/m² | - |
| 1778161631 | 12.22° C | 74% | 1012 hPa | 0 mm | 0.45 m/s, 279° | 191 W/m² | - |
| 1778161570 | 12.22° C | 74% | 1012 hPa | 0 mm | 1.79 m/s, 294° | 165 W/m² | - |
| 1778161508 | 12.22° C | 74% | 1011.8 hPa | 0 mm | 1.34 m/s, 292° | 137 W/m² | - |
| 1778161447 | 11.67° C | 76% | 1011.8 hPa | 0 mm | 0.45 m/s, 294° | 118 W/m² | - |
| 1778161386 | 11.67° C | 76% | 1012 hPa | 0 mm | 0.45 m/s, 230° | 110 W/m² | - |
| 1778161325 | 11.67° C | 75% | 1011.8 hPa | 0 mm | 0.89 m/s, 208° | 105 W/m² | - |
| 1778161264 | 12.22° C | 75% | 1011.9 hPa | 0 mm | 1.34 m/s, 284° | 95 W/m² | - |
| 1778161203 | 12.22° C | 75% | 1011.9 hPa | 0 mm | 0.89 m/s, 273° | 85 W/m² | - |
| 1778161142 | 12.22° C | 74% | 1011.9 hPa | 0 mm | 1.34 m/s, 174° | 71 W/m² | - |
| 1778161081 | 12.22° C | 73% | 1011.9 hPa | 0 mm | 0.89 m/s, 236° | 60 W/m² | - |
* Rain latest hour (hover to see other rain measurements)
** Current wind speed in m/s (hover to see current wind gust speed)